Marietta, GA

7:25 AM EDT on September 20, 2017 (GMT -0400)
Dobbins Air Force Base

Weather History for KMGE - October, 2012

Change the Weather History Date:

Sunday, October 21, 2012

  Actual Average Record
Temperature  
Mean Temperature 58 °F -  
Max Temperature 75 °F 68 °F 82 °F (2003)
Min Temperature 43 °F 49 °F 37 °F (2011)
Degree Days  
Heating Degree Days 6    
Growing Degree Days 8 (Base 50)    
Moisture  
Dew Point 44 °F    
Average Humidity 65    
Maximum Humidity 93    
Minimum Humidity 32    
Precipitation  
Precipitation 0.00 in - - ()
Sea Level Pressure  
Sea Level Pressure 30.11 in    
Wind  
Wind Speed 1 mph (WNW)    
Max Wind Speed 8 mph    
Max Gust Speed -    
Visibility 10 miles    
Events      
Averages and records for this station are not official NWS values.
T = Trace of Precipitation, MM = Missing Value Source: NWS Daily Summary

Daily Weather History Graph

Daily Weather History Graph

Search for Another Location

Airport or City:

Trip Planner

Search our weather history database for the weather conditions in past years. The results will help you decide how hot, cold, wet, or windy it might be!

Date:

Astronomy

Oct. 21, 2012 Rise Set
Actual Time 7:48 AM EDT 6:56 PM EDT
Civil Twilight 7:22 AM EDT 7:21 PM EDT
Nautical Twilight 6:53 AM EDT 7:50 PM EDT
Astronomical Twilight 6:24 AM EDT 8:19 PM EDT
Moon 2:03 PM EDT (10/21) No Moon Set
Length of Visible Light 11h 58m
Length of Day
11h 07m
Waxing Crescent, 45% of the Moon is Illuminated
Oct 21
Waxing Crescent
Oct 21
First Quarter
Oct 29
Full
Nov 6
Last Quarter
Nov 13
New

Hourly Weather History & Observations

Time (EDT) Temp. Dew Point Humidity Pressure Visibility Wind Dir Wind Speed Gust Speed Precip Events Conditions
12:55 AM 49.8 °F 44.8 °F 83% 30.01 in 10.0 mi Calm Calm - N/A   Clear
1:55 AM 49.5 °F 44.8 °F 84% 30.02 in 10.0 mi Calm Calm - N/A   Clear
2:55 AM 47.5 °F 43.5 °F 86% 30.04 in 10.0 mi Calm Calm - N/A   Clear
3:55 AM 47.5 °F 43.9 °F 87% 30.04 in 10.0 mi Calm Calm - N/A   Clear
4:55 AM 45.7 °F 43.3 °F 92% 30.05 in 10.0 mi Calm Calm - N/A   Clear
5:55 AM 45.3 °F 42.8 °F 91% 30.08 in 10.0 mi Calm Calm - N/A   Clear
6:55 AM 44.6 °F 42.8 °F 93% 30.11 in 10.0 mi Calm Calm - N/A   Clear
7:55 AM 43.5 °F 41.4 °F 92% 30.14 in 10.0 mi Calm Calm - N/A   Partly Cloudy
8:55 AM 49.1 °F 45.5 °F 87% 30.15 in 10.0 mi Calm Calm - N/A   Partly Cloudy
9:55 AM 57.2 °F 46.2 °F 67% 30.16 in 10.0 mi Calm Calm - N/A   Partly Cloudy
10:55 AM 60.8 °F 45.5 °F 57% 30.17 in 10.0 mi Calm Calm - N/A   Partly Cloudy
11:55 AM 64.0 °F 45.1 °F 50% 30.17 in 10.0 mi Variable 3.5 mph - N/A   Clear
12:55 PM 66.7 °F 45.3 °F 46% 30.16 in 10.0 mi Variable 2.3 mph - N/A   Clear
1:55 PM 70.0 °F 45.0 °F 41% 30.14 in 10.0 mi Variable 3.5 mph - N/A   Clear
2:55 PM 72.5 °F 44.4 °F 36% 30.12 in 10.0 mi Calm Calm - N/A   Clear
3:55 PM 74.3 °F 43.2 °F 33% 30.11 in 10.0 mi Calm Calm - N/A   Clear
4:55 PM 74.8 °F 42.8 °F 32% 30.11 in 10.0 mi NW 8.1 mph - N/A   Partly Cloudy
5:55 PM 72.7 °F 43.9 °F 36% 30.11 in 10.0 mi West 8.1 mph - N/A   Partly Cloudy
6:55 PM 68.9 °F 43.3 °F 40% 30.12 in 10.0 mi WNW 4.6 mph - N/A   Partly Cloudy
7:55 PM 65.1 °F 45.1 °F 48% 30.14 in 10.0 mi Calm Calm - N/A   Partly Cloudy
8:55 PM 60.3 °F 45.7 °F 59% 30.14 in 10.0 mi WNW 3.5 mph - N/A   Clear
9:55 PM 57.9 °F 46.6 °F 66% 30.15 in 10.0 mi Calm Calm - N/A   Partly Cloudy
10:55 PM 54.9 °F 46.0 °F 72% 30.15 in 10.0 mi Calm Calm - N/A   Partly Cloudy
11:55 PM 53.4 °F 46.2 °F 77% 30.15 in 10.0 mi Calm Calm - N/A   Clear